Location: Newark
(42.7133°N, 87.7910°W)
Time: 15:04:26
(UTC+00:00)

Vanguard 1 - Pass Details

Date: 21 September 2019
Orbit: 653 x 3830 km, 34.2° (Epoch: 20 October)

Event Time Altitude Azimuth Distance (km) Brightness Sun altitude
Rises 09:19:53 0° 252° (WSW) 7,915 - -25.1°
Reaches altitude 10° 09:25:19 10° 250° (WSW) 6,934 - -24.2°
Exits shadow 09:33:42 28° 244° (WSW) 5,407 13.1 -22.8°
Maximum altitude 09:48:00 65° 176° (S) 3,429 12.6 -20.4°
Drops below altitude 10° 10:02:47 10° 99° (E) 4,784 14.5 -17.8°
Sets 10:05:46 0° 96° (E) 5,449 15.1 -17.3°
